Meteo Giornale » Osservazioni meteo Australia » Norfolk Island
ore: 11:00 - Osservazioni Meteo Norfolk Island
Lat. 29° 2' S Lon. 167° 56' E Alt. 113 metri s.l.m.
19 °C
Poco Nuvoloso
Temp. 24 Ore
15 °C
19 °C
Sud
18.5 Km/h
Dew point 11 °C
Umidità 59 %
Visibilità 10 Km
Il sole sorge alle ore 06:03
Il sole tramonta alle ore 17:33
| Data e Ora | Cielo e Fenomeni | T °C | DP °C | Um. % | Pres. hPa | Vis. km | Vento km/h | |
|---|---|---|---|---|---|---|---|---|
| Oggi h: 11:00 | Poco Nuvoloso | 19 | 11 | 59 | 1026 | 10 | S 18.5 | |
| Oggi h: 10:30 | Sereno | 18 | 12 | 67 | 1026 | 10 | S/SE 16.7 | |
| Oggi h: 10:00 | Sereno | 18 | 12 | 67 | 1027 | 10 | S 18.5 | |
| Oggi h: 09:30 | Molto Nuvoloso | 18 | 12 | 67 | 1027 | 10 | S 18.5 | |
| Oggi h: 09:00 | Molto Nuvoloso | 18 | 13 | 72 | 1027 | 10 | S 13 | |
| Oggi h: 08:30 | Coperto | 18 | 12 | 67 | 1026 | 10 | S 16.7 | |
| Oggi h: 08:00 | Coperto | 18 | 12 | 67 | 1026 | 10 | S 13 | |
| Oggi h: 07:30 | Coperto | 17 | 12 | 72 | 1026 | 10 | S 14.8 | |
| Oggi h: 07:00 | Molto Nuvoloso | 17 | 13 | 77 | 1026 | 10 | S 13 | |
| Oggi h: 06:30 | Molto Nuvoloso | 16 | 12 | 77 | 1026 | 10 | S 13 | |
| Oggi h: 06:00 | Poco Nuvoloso | 15 | 12 | 82 | 1025 | 10 | S 11.1 | |
| Oggi h: 05:30 | Nuvoloso | 15 | 12 | 82 | 1025 | 10 | S 13 | |
| Oggi h: 05:00 | Molto Nuvoloso | 16 | 13 | 82 | 1024 | 10 | S 14.8 | |
| Oggi h: 04:30 | Pioggia | 16 | 13 | 82 | 1024 | 10 | S 13 | |
| Oggi h: 04:00 | Pioggia | 16 | 13 | 82 | 1024 | 10 | S 11.1 | |
| Oggi h: 03:30 | Coperto | 15 | 12 | 82 | 1024 | 10 | E 7.4 | |
| Oggi h: 03:00 | Coperto | 15 | 13 | 87 | 1025 | 10 | S/SE 14.8 | |
| Oggi h: 02:30 | Molto Nuvoloso | 16 | 13 | 82 | 1025 | 10 | SO 14.8 | |
| Oggi h: 02:00 | Coperto | 17 | 13 | 77 | 1025 | 10 | S/SO 14.8 | |
| Oggi h: 01:30 | Molto Nuvoloso | 16 | 13 | 82 | 1025 | 10 | S 13 | |
| Oggi h: 01:00 | Nuvoloso | 16 | 13 | 82 | 1025 | 10 | S 13 | |
| Oggi h: 00:30 | Coperto | 17 | 13 | 77 | 1025 | 10 | S 13 | |
| Oggi h: 00:00 | Coperto | 17 | 13 | 77 | 1025 | 10 | S/SO 13 | |
| Ieri h: 23:30 | Molto Nuvoloso | 16 | 13 | 82 | 1025 | 10 | S/SO 16.7 | |
| Ieri h: 23:00 | Coperto | 17 | 13 | 77 | 1025 | 10 | S/SO 13 | |
| Ieri h: 22:30 | Nuvoloso | 16 | 13 | 82 | 1025 | 10 | S/SO 13 | |
| Ieri h: 22:00 | Nuvoloso | 16 | 13 | 82 | 1025 | 10 | S 11.1 | |
| Ieri h: 21:30 | Molto Nuvoloso | 17 | 13 | 77 | 1025 | 10 | S 13 | |
| Ieri h: 21:00 | Molto Nuvoloso | 16 | 14 | 87 | 1025 | 10 | SO 7.4 | |
| Ieri h: 20:30 | Molto Nuvoloso | 16 | 14 | 87 | 1025 | 10 | O/SO 9.3 | |
| Ieri h: 20:00 | Molto Nuvoloso | 17 | 13 | 77 | 1024 | 10 | S 13 | |
| Ieri h: 19:30 | Coperto | 16 | 13 | 82 | 1024 | 10 | S 11.1 | |
| Ieri h: 19:00 | Coperto | 16 | 12 | 77 | 1024 | 10 | S 14.8 | |
| Ieri h: 18:30 | Molto Nuvoloso | 16 | 13 | 82 | 1024 | 10 | S 14.8 | |
| Ieri h: 18:00 | Nuvoloso | 16 | 13 | 82 | 1023 | 10 | S/SO 14.8 | |
| Ieri h: 17:30 | Sereno | 17 | 13 | 77 | 1023 | 10 | S 14.8 | |
| Ieri h: 17:00 | Poco Nuvoloso | 16 | 13 | 82 | 1023 | 10 | S 16.7 | |
| Ieri h: 16:30 | Coperto | 17 | 14 | 82 | 1023 | 10 | S 24 | |
| Ieri h: 16:00 | Molto Nuvoloso | 18 | 13 | 72 | 1023 | 10 | S 18.5 | |
| Ieri h: 15:30 | Coperto | 17 | 14 | 82 | 1023 | 10 | S/SO 13 | |
| Ieri h: 15:00 | Molto Nuvoloso | 17 | 13 | 77 | 1023 | 10 | SO 20.3 | |
| Ieri h: 14:30 | Pioggia | 17 | 13 | 77 | 1023 | 10 | S/SO 24 | |
| Ieri h: 14:00 | Molto Nuvoloso | 19 | 14 | 72 | 1023 | 10 | S/SO 22.2 | |
| Ieri h: 13:30 | Molto Nuvoloso | 19 | 13 | 68 | 1023 | 10 | S/SO 22.2 | |
| Ieri h: 13:00 | Molto Nuvoloso | 19 | 13 | 68 | 1023 | 10 | S/SO 18.5 | |
| Ieri h: 12:30 | Molto Nuvoloso | 19 | 14 | 72 | 1023 | 10 | SO 22.2 | |
| Ieri h: 12:00 | Nuvoloso | 19 | 13 | 68 | 1023 | 10 | S/SO 25.9 | |



